Weather History for KBWD - December, 2012

Change the Weather History Date:

Monday, December 10, 2012

  Actual Average (KABI) Record (KABI)
Temperature  
Mean Temperature 32 °F 46 °F  
Max Temperature 42 °F 57 °F 82 °F (1939)
Min Temperature 21 °F 34 °F 1 °F (1898)
Degree Days  
Heating Degree Days 34 19  
Month to date heating degree days 180  
Since 1 July heating degree days 613  
Cooling Degree Days 0 0  
Month to date cooling degree days 0  
Year to date cooling degree days 2408  
Moisture  
Dew Point 12 °F    
Average Humidity 43    
Maximum Humidity 74    
Minimum Humidity 27    
Precipitation  
Precipitation 0.00 in 0.04 in 1.83 in (1946)
Month to date precipitation 0.40  
Year to date precipitation 23.99  
Sea Level Pressure  
Sea Level Pressure 30.14 in    
Wind  
Wind Speed 14 mph (NNW)    
Max Wind Speed 25 mph    
Max Gust Speed 37 mph    
Visibility 10 miles    
Events      
T = Trace of Precipitation, MM = Missing Value Source: NWS Daily Summary

Daily Weather History Graph

Daily Weather History Graph

Search for Another Location

Airport or City:

Trip Planner

Search our weather history database for the weather conditions in past years. The results will help you decide how hot, cold, wet, or windy it might be!

Date:

Astronomy

Dec. 10, 2012 Rise Set
Actual Time 7:25 AM CST 5:32 PM CST
Civil Twilight 6:58 AM CST 5:59 PM CST
Nautical Twilight 6:28 AM CST 6:29 PM CST
Astronomical Twilight 5:58 AM CST 6:59 PM CST
Moon 4:17 AM CST (12/10) 3:17 PM CST (12/10)
Length of Visible Light 11h 00m
Length of Day
10h 07m
Waning Crescent, 10% of the Moon is Illuminated
Dec 10
Waning Crescent
Dec 13
New
Dec 19
First Quarter
Dec 28
Full
Jan 4
Last Quarter

Hourly Weather History & Observations

Time (CST) Temp. Windchill Dew Point Humidity Pressure Visibility Wind Dir Wind Speed Gust Speed Precip Events Conditions
12:15 AM 37.4 °F 28.5 °F 10.4 °F 33% 30.10 in 10.0 mi North 15.0 mph 26.5 mph N/A   Partly Cloudy
12:55 AM 35.6 °F 25.2 °F 10.4 °F 35% 30.12 in 10.0 mi NNW 18.4 mph 25.3 mph N/A   Overcast
1:15 AM 35.6 °F 24.5 °F 10.4 °F 35% 30.13 in 10.0 mi North 20.7 mph 33.4 mph N/A   Overcast
1:35 AM 35.6 °F 24.2 °F 8.6 °F 33% 30.14 in 10.0 mi North 21.9 mph 32.2 mph N/A   Overcast
1:55 AM 35.6 °F 23.7 °F 8.6 °F 33% 30.15 in 10.0 mi North 24.2 mph 36.8 mph N/A   Overcast
2:15 AM 35.6 °F 23.4 °F 8.6 °F 33% 30.16 in 10.0 mi NNW 25.3 mph 32.2 mph N/A   Overcast
2:35 AM 33.8 °F 21.9 °F 8.6 °F 35% 30.16 in 10.0 mi North 21.9 mph 35.7 mph N/A   Overcast
2:55 AM 35.6 °F 24.0 °F 6.8 °F 30% 30.18 in 10.0 mi NNW 23.0 mph 28.8 mph N/A   Overcast
3:15 AM 35.6 °F 24.8 °F 6.8 °F 30% 30.18 in 10.0 mi North 19.6 mph 26.5 mph N/A   Overcast
3:35 AM 35.6 °F 25.5 °F 6.8 °F 30% 30.17 in 10.0 mi North 17.3 mph 27.6 mph N/A   Overcast
3:55 AM 33.8 °F 22.8 °F 6.8 °F 32% 30.16 in 10.0 mi North 18.4 mph 21.9 mph N/A   Overcast
4:15 AM 35.6 °F 25.9 °F 6.8 °F 30% 30.16 in 10.0 mi North 16.1 mph 23.0 mph N/A   Overcast
4:35 AM 35.6 °F 25.9 °F 6.8 °F 30% 30.17 in 10.0 mi NNW 16.1 mph 23.0 mph N/A   Overcast
4:55 AM 35.6 °F 25.5 °F 6.8 °F 30% 30.17 in 10.0 mi North 17.3 mph 23.0 mph N/A   Overcast
5:15 AM 33.8 °F 22.2 °F 8.6 °F 35% 30.17 in 10.0 mi NNW 20.7 mph 25.3 mph N/A   Overcast
5:35 AM 32.0 °F 20.5 °F 15.8 °F 51% 30.17 in 10.0 mi NNW 18.4 mph 25.3 mph N/A   Overcast
6:35 AM 30.2 °F 20.2 °F 19.4 °F 64% 30.19 in 10.0 mi NNW 12.7 mph 18.4 mph N/A   Overcast
6:55 AM 28.4 °F 18.0 °F 21.2 °F 74% 30.20 in 10.0 mi NNW 12.7 mph - N/A   Overcast
7:15 AM 28.4 °F 19.7 °F 21.2 °F 74% 30.20 in 10.0 mi NNW 9.2 mph - N/A   Scattered Clouds
7:35 AM 28.4 °F 20.4 °F 21.2 °F 74% 30.20 in 10.0 mi NNW 8.1 mph - N/A   Clear
7:55 AM 28.4 °F 19.1 °F 21.2 °F 74% 30.20 in 10.0 mi NNW 10.4 mph - N/A   Clear
8:15 AM 30.2 °F 20.2 °F 19.4 °F 64% 30.20 in 10.0 mi NNW 12.7 mph - N/A   Clear
8:35 AM 32.0 °F 21.6 °F 17.6 °F 55% 30.21 in 10.0 mi NNW 15.0 mph 19.6 mph N/A   Clear
8:55 AM 32.0 °F 19.5 °F 15.8 °F 51% 30.21 in 10.0 mi NNW 21.9 mph 27.6 mph N/A   Clear
9:15 AM 32.0 °F 21.2 °F 15.8 °F 51% 30.21 in 10.0 mi NNW 16.1 mph 24.2 mph N/A   Clear
9:35 AM 32.0 °F 20.5 °F 15.8 °F 51% 30.21 in 10.0 mi NNW 18.4 mph 21.9 mph N/A   Clear
9:55 AM 33.8 °F 23.5 °F 14.0 °F 44% 30.21 in 10.0 mi NNW 16.1 mph 23.0 mph N/A   Clear
10:15 AM 35.6 °F 26.6 °F 14.0 °F 41% 30.21 in 10.0 mi NNW 13.8 mph - N/A   Clear
10:35 AM 35.6 °F 27.1 °F 14.0 °F 41% 30.21 in 10.0 mi NNW 12.7 mph 18.4 mph N/A   Clear
10:55 AM 35.6 °F 26.6 °F 14.0 °F 41% 30.21 in 10.0 mi NNW 13.8 mph - N/A   Clear
11:15 AM 37.4 °F 29.3 °F 14.0 °F 38% 30.20 in 10.0 mi NNW 12.7 mph 17.3 mph N/A   Clear
11:55 AM 39.2 °F 31.2 °F 14.0 °F 36% 30.18 in 10.0 mi NNW 13.8 mph 19.6 mph N/A   Clear
12:15 PM 39.2 °F 32.0 °F 12.2 °F 33% 30.18 in 10.0 mi NNW 11.5 mph 19.6 mph N/A   Clear
12:35 PM 39.2 °F 31.2 °F 14.0 °F 36% 30.17 in 10.0 mi NW 13.8 mph 19.6 mph N/A   Clear
12:55 PM 41.0 °F 33.9 °F 14.0 °F 33% 30.15 in 10.0 mi NW 12.7 mph 17.3 mph N/A   Clear
1:15 PM 41.0 °F 36.4 °F 14.0 °F 33% 30.15 in 10.0 mi NW 6.9 mph - N/A   Clear
1:35 PM 41.0 °F 33.9 °F 12.2 °F 31% 30.14 in 10.0 mi NW 12.7 mph 18.4 mph N/A   Clear
1:55 PM 41.0 °F 34.3 °F 12.2 °F 31% 30.12 in 10.0 mi NNW 11.5 mph 16.1 mph N/A   Clear
2:15 PM 42.8 °F 36.2 °F 12.2 °F 29% 30.12 in 10.0 mi NW 12.7 mph 17.3 mph N/A   Clear
2:35 PM 42.8 °F 37.5 °F 12.2 °F 29% 30.11 in 10.0 mi WNW 9.2 mph - N/A   Clear
2:55 PM 41.0 °F 36.4 °F 12.2 °F 31% 30.11 in 10.0 mi WNW 6.9 mph 17.3 mph N/A   Clear
3:15 PM 42.8 °F 37.5 °F 10.4 °F 27% 30.10 in 10.0 mi NW 9.2 mph - N/A   Clear
3:35 PM 42.8 °F 38.0 °F 12.2 °F 29% 30.09 in 10.0 mi NW 8.1 mph - N/A   Clear
3:55 PM 42.8 °F 37.5 °F 10.4 °F 27% 30.08 in 10.0 mi NNW 9.2 mph - N/A   Clear
4:15 PM 41.0 °F 36.4 °F 12.2 °F 31% 30.08 in 10.0 mi NW 6.9 mph - N/A   Clear
4:35 PM 41.0 °F 38.0 °F 12.2 °F 31% 30.09 in 10.0 mi NNW 4.6 mph - N/A   Clear
4:55 PM 41.0 °F 36.4 °F 12.2 °F 31% 30.09 in 10.0 mi NNW 6.9 mph - N/A   Clear
5:15 PM 41.0 °F 35.8 °F 12.2 °F 31% 30.09 in 10.0 mi NNW 8.1 mph - N/A   Clear
5:55 PM 37.4 °F 33.8 °F 14.0 °F 38% 30.10 in 10.0 mi North 4.6 mph - N/A   Clear
6:15 PM 37.4 °F 34.9 °F 14.0 °F 38% 30.10 in 10.0 mi North 3.5 mph - N/A   Clear
6:35 PM 35.6 °F 32.8 °F 12.2 °F 38% 30.10 in 10.0 mi North 3.5 mph - N/A   Clear
6:55 PM 33.8 °F 30.8 °F 14.0 °F 44% 30.10 in 10.0 mi NNE 3.5 mph - N/A   Clear
7:15 PM 32.0 °F - 12.2 °F 44% 30.11 in 10.0 mi Calm Calm - N/A   Clear
7:35 PM 32.0 °F - 12.2 °F 44% 30.11 in 10.0 mi North - - N/A   Clear
7:55 PM 30.2 °F - 12.2 °F 47% 30.11 in 10.0 mi North - - N/A   Clear
8:15 PM 28.4 °F - 12.2 °F 51% 30.11 in 10.0 mi Calm Calm - N/A   Clear
8:35 PM 28.4 °F 24.6 °F 12.2 °F 51% 30.10 in 10.0 mi NNW 3.5 mph - N/A   Clear
8:55 PM 26.6 °F - 12.2 °F 55% 30.11 in 10.0 mi Calm Calm - N/A   Clear
9:15 PM 28.4 °F 23.3 °F 14.0 °F 55% 30.11 in 10.0 mi NNE 4.6 mph - N/A   Clear
9:35 PM 24.8 °F - 10.4 °F 54% 30.11 in 10.0 mi Calm Calm - N/A   Clear
9:55 PM 26.6 °F - 12.2 °F 55% 30.11 in 10.0 mi Calm Calm - N/A   Clear
10:15 PM 24.8 °F - 10.4 °F 54% 30.12 in 10.0 mi Calm Calm - N/A   Clear
10:35 PM 23.0 °F - 10.4 °F 59% 30.12 in 10.0 mi Calm Calm - N/A   Clear
10:55 PM 24.8 °F - 10.4 °F 54% 30.12 in 10.0 mi Calm Calm - N/A   Clear
11:15 PM 21.2 °F - 10.4 °F 63% 30.12 in 10.0 mi Calm Calm - N/A   Clear
11:35 PM 23.0 °F 18.4 °F 10.4 °F 59% 30.12 in 10.0 mi ESE 3.5 mph - N/A   Clear
11:55 PM 23.0 °F - 10.4 °F 59% 30.12 in 10.0 mi Calm Calm - N/A   Clear